Location: Peterborough
(44.3091°N, 78.3197°W)
Time: 07:20:58
(UTC-04:00)

Vanguard 3 - Pass Details

Date: 27 March 2023
Orbit: 507 x 3246 km, 33.4° (Epoch: 04 June)

Event Time Altitude Azimuth Distance (km) Brightness Sun altitude
Rises 10:55:27 0° 277° (W) 6,777 11.5 37.7°
Reaches altitude 10° 11:03:08 10° 259° (W) 5,244 11.1 38.7°
Maximum altitude 11:09:58 15° 232° (SW) 4,240 10.9 39.6°
Drops below altitude 10° 11:15:30 10° 202° (SSW) 4,060 11.1 40.3°
Sets 11:20:08 0° 179° (S) 4,508 11.5 40.8°
